Location: Holyhead Bay
(53.3667°N, 4.6667°W)
Time: 06:38:38
(UTC+00:00)

ADEOS Rocket - Pass Details

Date: 24 April 2021
Orbit: 859 x 1306 km, 98.7° (Epoch: 12 May)

Event Time Altitude Azimuth Distance (km) Brightness Sun altitude
Rises 23:57:04 0° 89° (E) 3,973 6.2 -23.6°
Reaches altitude 10° 00:00:47 10° 69° (ENE) 3,100 5.8 -23.7°
Maximum altitude 00:04:36 16° 36° (NE) 2,774 6.0 -23.7°
Drops below altitude 10° 00:08:35 10° 3° (N) 3,247 6.8 -23.7°
Sets 00:12:36 0° 344° (NNW) 4,269 7.6 -23.8°
